Zurück zum Katalog

WESTFORD NEEDLES

AktivPO
NORAD 2796·DEBRIS·🇺🇸 United States

Gestartet May 9, 1963 von Vandenberg Space Force Base

Loading…

Nächste Überflüge (nächste 24 Stunden)

TLE

AktuellSource: Space-Track

Epoche: Sep 14, 2026, 10:37 UTC

1 02796U 63014AQ  26257.44243456  .00000049  00000-0  16669-1 0  9994
2 02796  87.1950  77.4672 0615441  72.1755 294.5243  8.68458102932800

Verfolge WESTFORD NEEDLES in Echtzeit mit AllMySat

Download on the App Store